{"data":{"norad_id":53064,"epoch":"2026-05-25T01:37:10.403328Z","epoch_age_seconds":63231,"freshness":"FRESH","line1":"1 53064U 22077X   26145.06748152 -.00001243  00000+0 -82084-4 0  9994","line2":"2 53064  97.4478 326.1271 0001290  63.7759 296.3601 15.05655867212471","mean_motion":15.05655867,"eccentricity":0.000129,"inclination_deg":97.4478,"raan_deg":326.1271,"arg_perigee_deg":63.7759,"mean_anomaly_deg":296.3601,"bstar":-8.2084e-5,"rev_number":21247,"period_min":95.639384241844,"perigee_km":548.59949336637,"apogee_km":550.38682194705,"semimajor_km":6927.6301576567,"source":"CELESTRAK","updated_at":"2026-05-25T13:38:17.310214Z"}}